{"data":{"norad_id":55144,"intl_designator":"2023-004E","name":"ONEWEB-0544","alt_names":[],"object_type":"PAYLOAD","status":"ACTIVE","operator":null,"country":"UK","launch_date":"2023-01-10","launch_site_code":"AFETR","launch_vehicle":null,"mission":null,"orbit_class":"UNKNOWN","rcs_meters":null,"size_class":null,"mass_kg":null,"dimensions":null,"purposes":["comms"],"wikipedia_slug":null,"has_3d_model":false,"image_url":null,"decayed_at":null,"tle_current":{"epoch":"2026-09-19T09:29:51.910944Z","epoch_age_seconds":117437,"freshness":"FRESH","line1":"1 55144U 23004E   26262.39573971  .00000129  00000+0  29486-3 0  9993","line2":"2 55144  87.9160 316.7458 0001800  92.2635 267.8703 13.18688476182110","mean_motion":13.18688476,"eccentricity":0.00018,"inclination_deg":87.916,"raan_deg":316.7458,"arg_perigee_deg":92.2635,"mean_anomaly_deg":267.8703,"bstar":0.00029486,"rev_number":18211,"period_min":109.19940730566,"perigee_km":1188.3714370618,"apogee_km":1191.0958704971,"semimajor_km":7567.8706537794,"source":"CELESTRAK","updated_at":"2026-09-20T09:00:44.750676Z"}}}